DLH1322 EDDF-DTTA

Flight info

Callsign DLH1322
Flight time 2h 1m
Altitude 35000
Route ANEKI2L ANEKI Y163 NATOR DCT TRA DCT RIPUS DCT GERSA DCT SOSON DCT ODINA DCT TOBGA DCT PIDUL DCT QUENN DCT NOLSI UA868 TUC
Aircraft A320/M-SDE3FGHIRWY/HB1

Departure

Time 2026-05-05 04:35
Airport Frankfurt Main Airport (EDDF)

Arrival

Time 2026-05-05 06:37
Airport Tunis Carthage International Airport (DTTA)
Time Latitude Longitude Altitude Speed Heading
2026-05-05 04:07 50.04403 8.56224 363 ft 0 kts 159°
2026-05-05 04:22 50.04412 8.56219 363 ft 2 kts 165°
2026-05-05 04:23 50.04426 8.56211 363 ft 2 kts 157°
2026-05-05 04:23 50.04441 8.56203 363 ft 2 kts 173°
2026-05-05 04:23 50.04455 8.56204 363 ft 2 kts 196°
2026-05-05 04:23 50.04469 8.56214 363 ft 2 kts 220°
2026-05-05 04:24 50.04479 8.56232 363 ft 1 kts 243°
2026-05-05 04:24 50.04481 8.56242 363 ft 1 kts 252°
2026-05-05 04:24 50.04482 8.56246 363 ft 0 kts 250°
2026-05-05 04:27 50.04481 8.56242 363 ft 0 kts 250°
2026-05-05 04:27 50.04478 8.56227 363 ft 1 kts 250°
2026-05-05 04:27 50.04472 8.56202 363 ft 2 kts 250°
2026-05-05 04:28 50.04464 8.56168 363 ft 3 kts 250°
2026-05-05 04:28 50.04453 8.56122 363 ft 5 kts 250°
2026-05-05 04:28 50.04438 8.56056 363 ft 7 kts 250°
2026-05-05 04:28 50.04417 8.55971 363 ft 9 kts 242°
2026-05-05 04:29 50.04361 8.55924 363 ft 10 kts 181°
2026-05-05 04:29 50.04294 8.55961 362 ft 8 kts 154°
2026-05-05 04:29 50.04242 8.55940 362 ft 9 kts 234°
2026-05-05 04:29 50.04215 8.55842 363 ft 10 kts 251°
2026-05-05 04:30 50.04185 8.55718 363 ft 13 kts 249°
2026-05-05 04:30 50.04149 8.55565 363 ft 16 kts 250°
2026-05-05 04:30 50.04104 8.55375 363 ft 20 kts 250°
2026-05-05 04:30 50.04052 8.55160 362 ft 22 kts 250°
2026-05-05 04:31 50.03993 8.54914 363 ft 25 kts 250°
2026-05-05 04:31 50.03931 8.54653 363 ft 25 kts 250°
2026-05-05 04:31 50.03873 8.54413 363 ft 16 kts 249°
2026-05-05 04:31 50.03811 8.54263 363 ft 16 kts 240°
2026-05-05 04:32 50.03769 8.54096 363 ft 17 kts 249°
2026-05-05 04:32 50.03724 8.53913 363 ft 18 kts 249°
2026-05-05 04:32 50.03674 8.53710 363 ft 21 kts 250°
2026-05-05 04:32 50.03620 8.53485 362 ft 22 kts 250°
2026-05-05 04:33 50.03562 8.53246 363 ft 24 kts 249°
2026-05-05 04:33 50.03504 8.53003 363 ft 23 kts 249°
2026-05-05 04:33 50.03441 8.52768 362 ft 22 kts 249°
2026-05-05 04:33 50.03394 8.52613 363 ft 7 kts 233°
2026-05-05 04:34 50.03347 8.52592 363 ft 7 kts 173°
2026-05-05 04:34 50.03280 8.52593 363 ft 19 kts 180°
2026-05-05 04:34 50.02853 8.52598 363 ft 101 kts 180°
2026-05-05 04:34 50.01897 8.52608 367 ft 168 kts 180°
2026-05-05 04:35 50.00646 8.52624 913 ft 183 kts 180°
2026-05-05 04:35 49.99401 8.52641 1764 ft 183 kts 180°
2026-05-05 04:35 49.98082 8.52690 2237 ft 196 kts 178°
2026-05-05 04:35 49.96668 8.52820 2652 ft 213 kts 177°
2026-05-05 04:36 49.95107 8.52968 3000 ft 236 kts 178°
2026-05-05 04:36 49.93444 8.53109 3678 ft 240 kts 178°
2026-05-05 04:36 49.91774 8.53238 4550 ft 240 kts 179°
2026-05-05 04:36 49.90149 8.53354 5414 ft 239 kts 179°
2026-05-05 04:37 49.88493 8.53464 6272 ft 239 kts 178°
2026-05-05 04:37 49.86835 8.53574 7100 ft 240 kts 178°
2026-05-05 04:37 49.85166 8.53689 7881 ft 242 kts 178°
2026-05-05 04:37 49.83487 8.53805 8648 ft 245 kts 179°
2026-05-05 04:38 49.81792 8.53921 9417 ft 247 kts 179°
2026-05-05 04:38 49.80069 8.54040 10180 ft 249 kts 179°
2026-05-05 04:38 49.78330 8.54110 10930 ft 251 kts 183°
2026-05-05 04:38 49.76585 8.53969 11565 ft 257 kts 187°
2026-05-05 04:39 49.74738 8.53725 11929 ft 274 kts 187°
2026-05-05 04:39 49.72774 8.53456 12256 ft 291 kts 187°
2026-05-05 04:39 49.70690 8.53172 12568 ft 308 kts 187°
2026-05-05 04:39 49.68472 8.52873 12942 ft 322 kts 187°
2026-05-05 04:40 49.66224 8.52574 13574 ft 326 kts 187°
2026-05-05 04:40 49.63932 8.52273 14281 ft 328 kts 187°
2026-05-05 04:40 49.61659 8.51974 14928 ft 331 kts 187°
2026-05-05 04:40 49.59372 8.51673 15543 ft 334 kts 187°
2026-05-05 04:41 49.57015 8.51362 16164 ft 336 kts 187°
2026-05-05 04:41 49.54680 8.51056 16767 ft 339 kts 187°
2026-05-05 04:41 49.52327 8.50747 17352 ft 341 kts 187°
2026-05-05 04:41 49.49925 8.50431 17926 ft 344 kts 187°
2026-05-05 04:42 49.47530 8.50117 18483 ft 346 kts 187°
2026-05-05 04:42 49.45116 8.49802 19010 ft 349 kts 187°
2026-05-05 04:42 49.42705 8.49487 19515 ft 352 kts 187°
2026-05-05 04:42 49.40259 8.49167 20011 ft 355 kts 187°
2026-05-05 04:43 49.37787 8.48843 20505 ft 357 kts 187°
2026-05-05 04:43 49.35305 8.48519 20981 ft 360 kts 188°
2026-05-05 04:43 49.32791 8.48190 21448 ft 363 kts 188°
2026-05-05 04:43 49.30272 8.47863 21895 ft 366 kts 188°
2026-05-05 04:44 49.27700 8.47529 22353 ft 368 kts 188°
2026-05-05 04:44 49.25151 8.47198 22799 ft 370 kts 188°
2026-05-05 04:44 49.22545 8.46860 23238 ft 373 kts 188°
2026-05-05 04:44 49.19984 8.46526 23660 ft 375 kts 188°
2026-05-05 04:45 49.17336 8.46182 24087 ft 377 kts 188°
2026-05-05 04:45 49.14720 8.45841 24495 ft 379 kts 188°
2026-05-05 04:45 49.12100 8.45500 24894 ft 381 kts 188°
2026-05-05 04:45 49.09434 8.45153 25297 ft 383 kts 189°
2026-05-05 04:46 49.06798 8.44679 25674 ft 383 kts 192°
2026-05-05 04:46 49.04140 8.43965 26040 ft 385 kts 195°
2026-05-05 04:46 49.01552 8.43077 26386 ft 386 kts 196°
2026-05-05 04:46 48.98923 8.42162 26731 ft 388 kts 195°
2026-05-05 04:47 48.96284 8.41246 27062 ft 390 kts 195°
2026-05-05 04:47 48.93651 8.40333 27395 ft 392 kts 195°
2026-05-05 04:47 48.90973 8.39402 27713 ft 394 kts 195°
2026-05-05 04:47 48.88282 8.38469 28021 ft 396 kts 195°
2026-05-05 04:48 48.85612 8.37543 28326 ft 398 kts 195°
2026-05-05 04:48 48.82899 8.36605 28627 ft 400 kts 195°
2026-05-05 04:48 48.80154 8.35655 28924 ft 402 kts 195°
2026-05-05 04:48 48.77434 8.34703 29209 ft 404 kts 195°
2026-05-05 04:49 48.74679 8.33699 29493 ft 406 kts 195°
2026-05-05 04:49 48.71929 8.32688 29765 ft 408 kts 195°
2026-05-05 04:49 48.69148 8.31665 30019 ft 410 kts 195°
2026-05-05 04:49 48.66350 8.30642 30274 ft 412 kts 195°
2026-05-05 04:50 48.63585 8.29635 30542 ft 413 kts 195°
2026-05-05 04:50 48.60780 8.28615 30815 ft 414 kts 195°
2026-05-05 04:50 48.57952 8.27596 31069 ft 415 kts 194°
2026-05-05 04:50 48.55109 8.26756 31298 ft 417 kts 191°
2026-05-05 04:51 48.52182 8.26167 31515 ft 420 kts 188°
2026-05-05 04:51 48.49285 8.25855 31801 ft 420 kts 185°
2026-05-05 04:51 48.46338 8.25807 32125 ft 420 kts 182°
2026-05-05 04:51 48.43405 8.26029 32446 ft 420 kts 179°
2026-05-05 04:52 48.40519 8.26512 32742 ft 420 kts 176°
2026-05-05 04:52 48.37593 8.27208 33032 ft 420 kts 175°
2026-05-05 04:52 48.34712 8.27900 33286 ft 419 kts 175°
2026-05-05 04:52 48.31814 8.28592 33495 ft 420 kts 175°
2026-05-05 04:53 48.28935 8.29280 33694 ft 420 kts 175°
2026-05-05 04:53 48.26056 8.29970 33890 ft 421 kts 175°
2026-05-05 04:53 48.23160 8.30664 34072 ft 421 kts 175°
2026-05-05 04:53 48.20255 8.31358 34242 ft 422 kts 175°
2026-05-05 04:54 48.17334 8.32057 34399 ft 423 kts 175°
2026-05-05 04:54 48.14450 8.32753 34540 ft 424 kts 175°
2026-05-05 04:54 48.11540 8.33461 34683 ft 425 kts 175°
2026-05-05 04:54 48.08640 8.34167 34820 ft 425 kts 175°
2026-05-05 04:55 48.05690 8.34883 34890 ft 427 kts 175°
2026-05-05 04:55 47.99833 8.36304 34896 ft 427 kts 175°
2026-05-05 04:56 47.93946 8.37723 34898 ft 427 kts 174°
2026-05-05 04:56 47.88117 8.39126 34899 ft 427 kts 174°
2026-05-05 04:57 47.82196 8.40545 34898 ft 427 kts 174°
2026-05-05 04:57 47.76304 8.41954 34898 ft 427 kts 174°
2026-05-05 04:58 47.70409 8.43359 34897 ft 427 kts 175°
2026-05-05 04:58 47.64480 8.44362 34898 ft 426 kts 178°
2026-05-05 04:59 47.58532 8.45251 34898 ft 426 kts 178°
2026-05-05 04:59 47.52615 8.46128 34897 ft 426 kts 178°
2026-05-05 05:00 47.46677 8.47001 34899 ft 427 kts 178°
2026-05-05 05:00 47.40764 8.47866 34904 ft 427 kts 177°
2026-05-05 05:01 47.34840 8.48731 34911 ft 428 kts 177°
2026-05-05 05:01 47.28916 8.49593 34920 ft 428 kts 177°
2026-05-05 05:02 47.23006 8.50456 34924 ft 428 kts 177°
2026-05-05 05:02 47.17066 8.51324 34926 ft 428 kts 177°
2026-05-05 05:03 47.11166 8.52178 34926 ft 428 kts 177°
2026-05-05 05:03 47.05252 8.53035 34926 ft 428 kts 177°
2026-05-05 05:04 46.99322 8.53896 34926 ft 428 kts 177°
2026-05-05 05:04 46.93413 8.54750 34926 ft 429 kts 177°
2026-05-05 05:05 46.87462 8.55607 34927 ft 428 kts 177°
2026-05-05 05:05 46.81515 8.56460 34926 ft 428 kts 177°
2026-05-05 05:06 46.75579 8.57308 34926 ft 429 kts 177°
2026-05-05 05:06 46.69614 8.58158 34926 ft 429 kts 177°
2026-05-05 05:07 46.63676 8.59002 34926 ft 429 kts 177°
2026-05-05 05:07 46.57698 8.59853 34926 ft 428 kts 177°
2026-05-05 05:08 46.51763 8.60700 34926 ft 428 kts 177°
2026-05-05 05:08 46.45822 8.61543 34926 ft 428 kts 177°
2026-05-05 05:09 46.39896 8.62381 34926 ft 428 kts 177°
2026-05-05 05:09 46.33976 8.63213 34926 ft 427 kts 177°
2026-05-05 05:10 46.28063 8.64042 34926 ft 427 kts 177°
2026-05-05 05:10 46.22192 8.64863 34926 ft 427 kts 177°
2026-05-05 05:11 46.16256 8.65693 34928 ft 427 kts 178°
2026-05-05 05:11 46.10386 8.66833 34935 ft 429 kts 173°
2026-05-05 05:12 46.04564 8.68849 34942 ft 432 kts 168°
2026-05-05 05:12 45.98769 8.71139 34948 ft 432 kts 168°
2026-05-05 05:13 45.92983 8.73414 34951 ft 433 kts 168°
2026-05-05 05:13 45.87161 8.75701 34952 ft 433 kts 168°
2026-05-05 05:14 45.81307 8.77997 34952 ft 433 kts 168°
2026-05-05 05:14 45.75461 8.80286 34953 ft 434 kts 168°
2026-05-05 05:15 45.69578 8.82584 34952 ft 434 kts 168°
2026-05-05 05:15 45.63731 8.84863 34953 ft 434 kts 168°
2026-05-05 05:16 45.57880 8.87137 34953 ft 435 kts 168°
2026-05-05 05:16 45.52008 8.89416 34956 ft 435 kts 168°
2026-05-05 05:17 45.46148 8.91684 34961 ft 436 kts 168°
2026-05-05 05:17 45.40252 8.93963 34968 ft 436 kts 168°
2026-05-05 05:18 45.34393 8.96222 34971 ft 436 kts 168°
2026-05-05 05:18 45.28505 8.98488 34972 ft 436 kts 168°
2026-05-05 05:19 45.22614 9.00749 34971 ft 437 kts 168°
2026-05-05 05:19 45.16708 9.03012 34969 ft 437 kts 168°
2026-05-05 05:20 45.10819 9.05262 34966 ft 437 kts 168°
2026-05-05 05:20 45.04899 9.07520 34966 ft 437 kts 168°
2026-05-05 05:21 44.99031 9.09754 34971 ft 438 kts 168°
2026-05-05 05:21 44.93084 9.12012 34983 ft 438 kts 168°
2026-05-05 05:22 44.87197 9.14243 34996 ft 438 kts 168°
2026-05-05 05:22 44.81247 9.16493 35002 ft 439 kts 168°
2026-05-05 05:23 44.75349 9.18719 34988 ft 439 kts 168°
2026-05-05 05:23 44.69402 9.20958 34970 ft 439 kts 168°
2026-05-05 05:24 44.63502 9.23175 34961 ft 439 kts 168°
2026-05-05 05:24 44.57571 9.25399 34957 ft 440 kts 168°
2026-05-05 05:25 44.51672 9.27606 34955 ft 440 kts 168°
2026-05-05 05:25 44.45740 9.29821 34954 ft 440 kts 168°
2026-05-05 05:26 44.39781 9.32041 34954 ft 441 kts 168°
2026-05-05 05:26 44.33873 9.34238 34954 ft 441 kts 168°
2026-05-05 05:27 44.27959 9.36432 34954 ft 442 kts 168°
2026-05-05 05:27 44.19066 9.39724 34954 ft 442 kts 168°
2026-05-05 05:28 44.13140 9.41911 34954 ft 442 kts 168°
2026-05-05 05:28 44.07202 9.44100 34955 ft 442 kts 168°
2026-05-05 05:29 44.01245 9.46289 34955 ft 442 kts 168°
2026-05-05 05:29 43.95295 9.48476 34955 ft 443 kts 169°
2026-05-05 05:30 43.89362 9.50646 34955 ft 443 kts 169°
2026-05-05 05:30 43.83456 9.52801 34954 ft 443 kts 169°
2026-05-05 05:31 43.77503 9.54971 34954 ft 443 kts 169°
2026-05-05 05:31 43.71534 9.57142 34954 ft 443 kts 169°
2026-05-05 05:32 43.65593 9.59299 34954 ft 443 kts 169°
2026-05-05 05:32 43.59611 9.61467 34954 ft 443 kts 169°
2026-05-05 05:33 43.53647 9.63625 34954 ft 443 kts 169°
2026-05-05 05:33 43.47666 9.65783 34954 ft 442 kts 170°
2026-05-05 05:34 43.41727 9.67922 34954 ft 442 kts 170°
2026-05-05 05:34 43.35766 9.70064 34954 ft 441 kts 170°
2026-05-05 05:35 43.29830 9.72193 34955 ft 441 kts 171°
2026-05-05 05:35 43.23890 9.74318 34954 ft 440 kts 171°
2026-05-05 05:36 43.17959 9.76436 34954 ft 440 kts 171°
2026-05-05 05:36 43.12049 9.78542 34952 ft 440 kts 171°
2026-05-05 05:37 43.06134 9.80645 34946 ft 439 kts 171°
2026-05-05 05:37 43.00256 9.82729 34938 ft 438 kts 172°
2026-05-05 05:38 42.94346 9.84821 34932 ft 438 kts 172°
2026-05-05 05:38 42.88483 9.86830 34931 ft 435 kts 174°
2026-05-05 05:39 42.82541 9.88470 34930 ft 434 kts 175°
2026-05-05 05:39 42.76656 9.90082 34931 ft 433 kts 175°
2026-05-05 05:40 42.70768 9.91687 34933 ft 432 kts 176°
2026-05-05 05:40 42.64860 9.93291 34935 ft 432 kts 176°
2026-05-05 05:41 42.59006 9.94877 34939 ft 431 kts 176°
2026-05-05 05:41 42.53147 9.96462 34945 ft 430 kts 176°
2026-05-05 05:42 42.47318 9.98034 34951 ft 430 kts 177°
2026-05-05 05:42 42.41442 9.99615 34956 ft 429 kts 177°
2026-05-05 05:43 42.35634 10.01177 34964 ft 428 kts 177°
2026-05-05 05:43 42.29787 10.02745 34970 ft 428 kts 177°
2026-05-05 05:44 42.23973 10.04301 34973 ft 428 kts 177°
2026-05-05 05:44 42.18179 10.05850 34975 ft 427 kts 177°
2026-05-05 05:45 42.12362 10.07400 34977 ft 427 kts 177°
2026-05-05 05:45 42.06569 10.08944 34979 ft 427 kts 178°
2026-05-05 05:46 42.00764 10.10486 34980 ft 427 kts 178°
2026-05-05 05:46 41.94968 10.12023 34981 ft 427 kts 178°
2026-05-05 05:47 41.89128 10.13569 34982 ft 427 kts 177°
2026-05-05 05:47 41.83319 10.15103 34981 ft 427 kts 177°
2026-05-05 05:48 41.77547 10.16626 34980 ft 428 kts 177°
2026-05-05 05:48 41.71704 10.18164 34980 ft 428 kts 177°
2026-05-05 05:49 41.65866 10.19698 34981 ft 429 kts 177°
2026-05-05 05:49 41.60007 10.21235 34980 ft 430 kts 177°
2026-05-05 05:50 41.54159 10.22766 34980 ft 430 kts 177°
2026-05-05 05:50 41.48318 10.24293 34980 ft 431 kts 177°
2026-05-05 05:51 41.42427 10.25829 34981 ft 432 kts 177°
2026-05-05 05:51 41.36527 10.27365 34983 ft 433 kts 177°
2026-05-05 05:52 41.30646 10.28895 34989 ft 434 kts 177°
2026-05-05 05:52 41.24754 10.30422 34997 ft 435 kts 177°
2026-05-05 05:53 41.18803 10.31962 35003 ft 436 kts 176°
2026-05-05 05:53 41.12884 10.33489 35005 ft 437 kts 177°
2026-05-05 05:54 41.06907 10.35029 35006 ft 438 kts 176°
2026-05-05 05:54 41.00961 10.36455 35007 ft 437 kts 178°
2026-05-05 05:55 40.94976 10.37723 35007 ft 438 kts 178°
2026-05-05 05:55 40.88996 10.38993 35007 ft 438 kts 178°
2026-05-05 05:56 40.82994 10.40273 35007 ft 439 kts 178°
2026-05-05 05:56 40.76974 10.41561 35007 ft 440 kts 178°
2026-05-05 05:57 40.70967 10.42844 35011 ft 440 kts 178°
2026-05-05 05:57 40.64912 10.44136 35018 ft 441 kts 178°
2026-05-05 05:58 40.58873 10.45421 35026 ft 441 kts 178°
2026-05-05 05:58 40.52863 10.46697 35032 ft 442 kts 178°
2026-05-05 05:59 40.46813 10.47981 35034 ft 442 kts 178°
2026-05-05 05:59 40.40747 10.49264 35035 ft 443 kts 178°
2026-05-05 06:00 40.34696 10.50541 35035 ft 443 kts 178°
2026-05-05 06:00 40.28627 10.51819 35036 ft 443 kts 178°
2026-05-05 06:01 40.22556 10.53083 35035 ft 441 kts 179°
2026-05-05 06:01 40.16535 10.53784 35035 ft 435 kts 185°
2026-05-05 06:02 40.10551 10.53626 35035 ft 429 kts 191°
2026-05-05 06:02 40.04610 10.52897 35036 ft 428 kts 192°
2026-05-05 06:03 39.98722 10.52165 35033 ft 429 kts 192°
2026-05-05 06:03 39.92786 10.51428 35035 ft 431 kts 192°
2026-05-05 06:04 39.86820 10.50690 35036 ft 431 kts 192°
2026-05-05 06:04 39.80904 10.49958 35035 ft 431 kts 192°
2026-05-05 06:05 39.74935 10.49222 35035 ft 431 kts 192°
2026-05-05 06:05 39.69000 10.48492 35035 ft 431 kts 192°
2026-05-05 06:06 39.63016 10.47756 35034 ft 432 kts 192°
2026-05-05 06:06 39.57062 10.47026 35035 ft 433 kts 192°
2026-05-05 06:07 39.51112 10.46297 35035 ft 433 kts 192°
2026-05-05 06:07 39.45139 10.45567 35035 ft 433 kts 192°
2026-05-05 06:08 39.39159 10.44838 35035 ft 434 kts 192°
2026-05-05 06:08 39.33160 10.44106 35034 ft 434 kts 192°
2026-05-05 06:09 39.27144 10.43374 35035 ft 435 kts 192°
2026-05-05 06:09 39.21148 10.42646 35035 ft 436 kts 192°
2026-05-05 06:10 39.15121 10.41915 35035 ft 437 kts 192°
2026-05-05 06:10 39.09110 10.41188 35035 ft 437 kts 192°
2026-05-05 06:11 39.03075 10.40459 35035 ft 438 kts 192°
2026-05-05 06:11 38.97031 10.39731 35035 ft 439 kts 192°
2026-05-05 06:12 38.90958 10.39000 35035 ft 439 kts 192°
2026-05-05 06:12 38.87907 10.38633 34856 ft 438 kts 191°
2026-05-05 06:12 38.84891 10.38272 34436 ft 437 kts 192°
2026-05-05 06:13 38.81897 10.37914 33812 ft 438 kts 192°
2026-05-05 06:13 38.78860 10.37547 33100 ft 439 kts 192°
2026-05-05 06:13 38.75867 10.37184 32365 ft 440 kts 191°
2026-05-05 06:13 38.72798 10.36813 31590 ft 441 kts 191°
2026-05-05 06:14 38.69764 10.36447 30812 ft 442 kts 190°
2026-05-05 06:14 38.66721 10.36082 30017 ft 443 kts 190°
2026-05-05 06:14 38.63685 10.35720 29367 ft 439 kts 190°
2026-05-05 06:14 38.60694 10.35366 28872 ft 432 kts 189°
2026-05-05 06:15 38.57739 10.35017 28370 ft 427 kts 189°
2026-05-05 06:15 38.54820 10.34672 27904 ft 420 kts 189°
2026-05-05 06:15 38.51934 10.34329 27464 ft 416 kts 189°
2026-05-05 06:15 38.49088 10.33989 27036 ft 413 kts 189°
2026-05-05 06:16 38.46249 10.33652 26604 ft 410 kts 189°
2026-05-05 06:16 38.43412 10.33314 26131 ft 407 kts 189°
2026-05-05 06:16 38.40604 10.32981 25641 ft 404 kts 189°
2026-05-05 06:16 38.37827 10.32651 25143 ft 400 kts 188°
2026-05-05 06:17 38.35081 10.32325 24645 ft 397 kts 188°
2026-05-05 06:17 38.32350 10.32001 24151 ft 393 kts 188°
2026-05-05 06:17 38.29666 10.31683 23670 ft 390 kts 188°
2026-05-05 06:17 38.26977 10.31367 23181 ft 386 kts 188°
2026-05-05 06:18 38.24316 10.31053 22693 ft 383 kts 188°
2026-05-05 06:18 38.21718 10.30747 22211 ft 380 kts 188°
2026-05-05 06:18 38.19099 10.30438 21724 ft 376 kts 188°
2026-05-05 06:18 38.16517 10.30132 21232 ft 373 kts 188°
2026-05-05 06:19 38.13941 10.29828 20741 ft 370 kts 188°
2026-05-05 06:19 38.11385 10.29526 20253 ft 367 kts 188°
2026-05-05 06:19 38.08859 10.29228 19764 ft 364 kts 188°
2026-05-05 06:19 38.06343 10.28933 19272 ft 362 kts 188°
2026-05-05 06:20 38.03834 10.28663 18780 ft 360 kts 187°
2026-05-05 06:20 38.01355 10.28526 18277 ft 359 kts 185°
2026-05-05 06:20 37.98864 10.28407 17770 ft 358 kts 185°
2026-05-05 06:20 37.96373 10.28289 17269 ft 356 kts 185°
2026-05-05 06:21 37.93909 10.28171 16771 ft 355 kts 185°
2026-05-05 06:21 37.91447 10.28053 16272 ft 354 kts 185°
2026-05-05 06:21 37.89020 10.27938 15782 ft 353 kts 185°
2026-05-05 06:21 37.86585 10.27820 15289 ft 352 kts 185°
2026-05-05 06:22 37.84150 10.27704 14798 ft 351 kts 185°
2026-05-05 06:22 37.81714 10.27587 14304 ft 350 kts 185°
2026-05-05 06:22 37.79283 10.27473 13802 ft 349 kts 186°
2026-05-05 06:22 37.76873 10.27362 13304 ft 348 kts 186°
2026-05-05 06:23 37.74471 10.27245 12807 ft 346 kts 186°
2026-05-05 06:23 37.72080 10.27128 12316 ft 345 kts 186°
2026-05-05 06:23 37.69685 10.27012 11817 ft 343 kts 186°
2026-05-05 06:23 37.67294 10.26894 11329 ft 340 kts 185°
2026-05-05 06:24 37.64971 10.26780 10982 ft 332 kts 185°
2026-05-05 06:24 37.62712 10.26675 10844 ft 318 kts 185°
2026-05-05 06:24 37.60548 10.26575 10700 ft 306 kts 185°
2026-05-05 06:24 37.58463 10.26477 10561 ft 293 kts 184°
2026-05-05 06:25 37.56460 10.26382 10431 ft 282 kts 184°
2026-05-05 06:25 37.54520 10.26289 10187 ft 276 kts 184°
2026-05-05 06:25 37.52609 10.26196 9817 ft 275 kts 183°
2026-05-05 06:25 37.50698 10.26203 9478 ft 273 kts 180°
2026-05-05 06:26 37.48822 10.26257 9158 ft 270 kts 179°
2026-05-05 06:26 37.46949 10.26315 8838 ft 267 kts 179°
2026-05-05 06:26 37.45118 10.26373 8517 ft 265 kts 179°
2026-05-05 06:26 37.43284 10.26431 8192 ft 263 kts 179°
2026-05-05 06:27 37.41465 10.26487 7866 ft 261 kts 179°
2026-05-05 06:27 37.37868 10.26596 7218 ft 257 kts 179°
2026-05-05 06:27 37.36080 10.26650 6891 ft 255 kts 179°
2026-05-05 06:28 37.34308 10.26702 6565 ft 254 kts 178°
2026-05-05 06:28 37.32557 10.26755 6246 ft 252 kts 178°
2026-05-05 06:28 37.30799 10.26807 5925 ft 251 kts 178°
2026-05-05 06:28 37.29065 10.26858 5609 ft 249 kts 178°
2026-05-05 06:29 37.27324 10.26911 5292 ft 248 kts 178°
2026-05-05 06:29 37.25613 10.26961 4981 ft 247 kts 178°
2026-05-05 06:29 37.23917 10.27011 4673 ft 245 kts 178°
2026-05-05 06:29 37.22205 10.27061 4359 ft 244 kts 178°
2026-05-05 06:30 37.20534 10.27110 4054 ft 242 kts 178°
2026-05-05 06:30 37.18843 10.27160 3742 ft 241 kts 178°
2026-05-05 06:30 37.17183 10.27210 3453 ft 238 kts 178°
2026-05-05 06:30 37.15556 10.27257 3316 ft 229 kts 178°
2026-05-05 06:31 37.13990 10.27303 3185 ft 221 kts 178°
2026-05-05 06:31 37.12498 10.27346 3061 ft 217 kts 178°
2026-05-05 06:31 37.10972 10.27391 2934 ft 217 kts 178°
2026-05-05 06:31 37.09479 10.27436 2810 ft 217 kts 178°
2026-05-05 06:32 37.07968 10.27481 2684 ft 217 kts 178°
2026-05-05 06:32 37.06456 10.27546 2558 ft 217 kts 174°
2026-05-05 06:32 37.04948 10.27702 2432 ft 217 kts 178°
2026-05-05 06:32 37.03441 10.27618 2307 ft 217 kts 186°
2026-05-05 06:33 37.01950 10.27309 2196 ft 217 kts 190°
2026-05-05 06:33 37.00513 10.26918 2186 ft 208 kts 191°
2026-05-05 06:33 36.99131 10.26526 2178 ft 200 kts 191°
2026-05-05 06:33 36.97794 10.26153 2157 ft 189 kts 191°
2026-05-05 06:34 36.96553 10.25813 2054 ft 177 kts 191°
2026-05-05 06:34 36.95359 10.25489 1791 ft 171 kts 191°
2026-05-05 06:34 36.94223 10.25181 1529 ft 161 kts 191°
2026-05-05 06:34 36.93144 10.24888 1292 ft 152 kts 191°
2026-05-05 06:35 36.92139 10.24615 1111 ft 146 kts 191°
2026-05-05 06:35 36.91139 10.24343 924 ft 146 kts 191°
2026-05-05 06:35 36.90150 10.24073 739 ft 146 kts 191°
2026-05-05 06:35 36.89144 10.23800 544 ft 146 kts 191°
2026-05-05 06:36 36.88147 10.23528 347 ft 146 kts 192°
2026-05-05 06:36 36.87141 10.23256 152 ft 146 kts 192°
2026-05-05 06:36 36.86155 10.22986 31 ft 138 kts 192°
2026-05-05 06:36 36.85335 10.22764 29 ft 94 kts 193°
2026-05-05 06:37 36.84861 10.22632 29 ft 44 kts 192°
2026-05-05 06:37 36.84634 10.22569 29 ft 30 kts 197°
2026-05-05 06:37 36.84494 10.22401 29 ft 25 kts 248°
2026-05-05 06:37 36.84479 10.22262 29 ft 14 kts 278°
2026-05-05 06:38 36.84498 10.22167 29 ft 7 kts 283°
2026-05-05 06:38 36.84501 10.22104 29 ft 7 kts 254°
2026-05-05 06:38 36.84479 10.22049 29 ft 5 kts 231°
2026-05-05 06:38 36.84452 10.22008 29 ft 6 kts 236°
2026-05-05 06:39 36.84438 10.21949 29 ft 7 kts 267°
2026-05-05 06:39 36.84441 10.21901 29 ft 6 kts 287°
2026-05-05 06:39 36.84472 10.21869 29 ft 6 kts 360°
2026-05-05 06:39 36.84521 10.21878 29 ft 5 kts
2026-05-05 06:40 36.84531 10.21879 29 ft 0 kts